When you browse on this site, cookies collect data to enhance your experience and personalize the content and advertising you see.
Visit our Privacy Policy to learn more. By continuing to use the site, you agree to this use of cookies and data.
  • En España
  • Lista de países
  • Para 7 días
  • Temperatura del agua
  • Mapa Satelital
  • El tiempo en el mapa
  • Informadores
  • user-avatar
    Iniciar sesión

    Tiempo cada hora Innsbruck

    Hoy, 18 Noviembre, Domingo

    Tiempo Temperatura Precipitaciones Viento Presión Humedad
    00:00 -7°C° 0 mm 1 mps 596 mmHg 69%
    01:00 -7°C° 0 mm 1 mps 595 mmHg 67%
    02:00 -7°C° 0 mm 1 mps 595 mmHg 66%
    03:00 -7°C° 0 mm 1 mps 595 mmHg 65%
    04:00 -7°C° 0 mm 1 mps 595 mmHg 64%
    05:00 -7°C° 0 mm 1 mps 594 mmHg 63%
    06:00 -8°C° 0 mm 1 mps 594 mmHg 63%
    07:00 -8°C° 0 mm 1 mps 594 mmHg 57%
    08:00 -6°C° 0 mm 1 mps 594 mmHg 52%
    09:00 -3°C° 0 mm 1 mps 595 mmHg 46%
    10:00 -2°C° 0 mm 1 mps 595 mmHg 41%
    11:00 -1°C° 0 mm 1 mps 595 mmHg 40%
    12:00 0°C° 0 mm 1 mps 595 mmHg 39%
    13:00 0°C° 0 mm 1 mps 595 mmHg 38%
    14:00 -1°C° 0 mm 1 mps 594 mmHg 44%
    15:00 -2°C° 0 mm 1 mps 593 mmHg 51%
    16:00 -3°C° 0 mm 1 mps 592 mmHg 57%
    17:00 -4°C° 0 mm 1 mps 592 mmHg 65%
    18:00 -7°C° 0 mm 1 mps 591 mmHg 72%
    19:00 -8°C° 0 mm 1 mps 590 mmHg 80%
    20:00 -8°C° 0 mm 1 mps 590 mmHg 80%
    21:00 -7°C° 0 mm 1 mps 590 mmHg 81%
    22:00 -7°C° 0 mm 1 mps 590 mmHg 82%
    23:00 -7°C° 0.2 mm 1 mps 590 mmHg 83%

    Mañana, 19 Noviembre, Lunes

    Tiempo Temperatura Precipitaciones Viento Presión Humedad
    00:00 -7°C° 0.2 mm 1 mps 590 mmHg 85%
    01:00 -7°C° 0.2 mm 1 mps 589 mmHg 86%
    02:00 -8°C° 0.3 mm 1 mps 589 mmHg 88%
    03:00 -8°C° 0.3 mm 1 mps 588 mmHg 89%
    04:00 -8°C° 0.3 mm 1 mps 588 mmHg 90%
    05:00 -8°C° 0.3 mm 1 mps 588 mmHg 90%
    06:00 -8°C° 0.3 mm 1 mps 587 mmHg 90%
    07:00 -8°C° 0.3 mm 1 mps 587 mmHg 90%
    08:00 -8°C° 0.2 mm 1 mps 587 mmHg 86%
    09:00 -8°C° 0.2 mm 2 mps 587 mmHg 82%
    10:00 -8°C° 0.2 mm 2 mps 587 mmHg 78%
    11:00 -7°C° 0.1 mm 2 mps 587 mmHg 74%
    12:00 -7°C° 0.1 mm 2 mps 587 mmHg 70%
    13:00 -6°C° 0.1 mm 2 mps 587 mmHg 67%
    14:00 -7°C° 0 mm 2 mps 587 mmHg 70%
    15:00 -7°C° 0 mm 2 mps 586 mmHg 73%
    16:00 -8°C° 0 mm 2 mps 586 mmHg 76%
    17:00 -9°C° 0 mm 2 mps 586 mmHg 80%
    18:00 -9°C° 0 mm 2 mps 585 mmHg 83%
    19:00 -10°C° 0 mm 2 mps 585 mmHg 87%
    20:00 -10°C° 0 mm 2 mps 585 mmHg 85%
    21:00 -10°C° 0 mm 2 mps 585 mmHg 83%
    22:00 -10°C° 0 mm 2 mps 585 mmHg 81%
    23:00 -10°C° 0.1 mm 2 mps 584 mmHg 80%

    Pasado mañana, 20 Noviembre, Martes

    Tiempo Temperatura Precipitaciones Viento Presión Humedad
    00:00 -10°C° 0.1 mm 2 mps 584 mmHg 78%
    01:00 -9°C° 0.1 mm 2 mps 584 mmHg 76%
    02:00 -9°C° 0.2 mm 2 mps 584 mmHg 77%
    03:00 -8°C° 0.2 mm 1 mps 583 mmHg 78%
    04:00 -7°C° 0.2 mm 1 mps 583 mmHg 79%
    05:00 -7°C° 0.3 mm 1 mps 583 mmHg 80%
    06:00 -7°C° 0.3 mm 1 mps 583 mmHg 81%
    07:00 -7°C° 0.3 mm 1 mps 583 mmHg 82%
    08:00 -6°C° 0.2 mm 1 mps 583 mmHg 79%
    09:00 -6°C° 0.2 mm 2 mps 584 mmHg 76%
    10:00 -5°C° 0.2 mm 2 mps 584 mmHg 72%
    11:00 -3°C° 0 mm 2 mps 585 mmHg 70%
    12:00 -2°C° 0 mm 2 mps 585 mmHg 67%
    13:00 -1°C° 0 mm 2 mps 585 mmHg 65%
    14:00 -3°C° 0 mm 2 mps 585 mmHg 70%
    15:00 -4°C° 0 mm 2 mps 585 mmHg 76%
    16:00 -5°C° 0 mm 2 mps 584 mmHg 82%
    17:00 -6°C° 0 mm 2 mps 585 mmHg 83%
    18:00 -7°C° 0 mm 2 mps 585 mmHg 85%
    19:00 -8°C° 0 mm 2 mps 585 mmHg 87%
    20:00 -8°C° 0 mm 2 mps 585 mmHg 86%
    21:00 -8°C° 0 mm 2 mps 586 mmHg 85%
    22:00 -8°C° 0 mm 2 mps 586 mmHg 84%
    23:00 -8°C° 0 mm 2 mps 586 mmHg 84%

    21 Noviembre, Miércoles

    Tiempo Temperatura Precipitaciones Viento Presión Humedad
    00:00 -8°C° 0 mm 2 mps 587 mmHg 84%
    01:00 -8°C° 0 mm 2 mps 587 mmHg 84%
    02:00 -8°C° 0 mm 2 mps 587 mmHg 83%
    03:00 -8°C° 0 mm 2 mps 587 mmHg 83%
    04:00 -8°C° 0 mm 2 mps 587 mmHg 82%
    05:00 -8°C° 0 mm 2 mps 587 mmHg 80%
    06:00 -8°C° 0 mm 2 mps 587 mmHg 79%
    07:00 -8°C° 0 mm 2 mps 587 mmHg 77%
    08:00 -6°C° 0 mm 2 mps 588 mmHg 72%
    09:00 -4°C° 0 mm 2 mps 589 mmHg 68%
    10:00 -2°C° 0 mm 2 mps 590 mmHg 63%
    11:00 -1°C° 0 mm 3 mps 590 mmHg 61%
    12:00 0°C° 0 mm 3 mps 590 mmHg 60%
    13:00 +1°C° 0 mm 3 mps 590 mmHg 59%
    14:00 0°C° 0 mm 3 mps 590 mmHg 64%
    15:00 -1°C° 0 mm 3 mps 590 mmHg 69%
    16:00 -4°C° 0 mm 3 mps 589 mmHg 75%
    17:00 -4°C° 0 mm 3 mps 589 mmHg 78%
    18:00 -5°C° 0 mm 3 mps 590 mmHg 81%
    19:00 -6°C° 0 mm 3 mps 590 mmHg 84%
    20:00 -5°C° 0 mm 2 mps 590 mmHg 85%
    21:00 -5°C° 0 mm 2 mps 591 mmHg 85%
    22:00 -5°C° 0 mm 2 mps 591 mmHg 86%
    23:00 -6°C° 0 mm 2 mps 591 mmHg 87%

    22 Noviembre, Jueves

    Tiempo Temperatura Precipitaciones Viento Presión Humedad
    00:00 -6°C° 0 mm 2 mps 591 mmHg 88%
    01:00 -6°C° 0 mm 2 mps 591 mmHg 88%
    02:00 -6°C° 0 mm 2 mps 591 mmHg 88%
    03:00 -6°C° 0 mm 2 mps 591 mmHg 88%
    04:00 -7°C° 0 mm 2 mps 591 mmHg 88%
    05:00 -7°C° 0 mm 2 mps 591 mmHg 88%
    06:00 -6°C° 0 mm 1 mps 592 mmHg 87%
    07:00 -6°C° 0 mm 1 mps 592 mmHg 86%
    08:00 -4°C° 0 mm 1 mps 593 mmHg 81%
    09:00 -2°C° 0 mm 1 mps 593 mmHg 76%
    10:00 0°C° 0 mm 1 mps 594 mmHg 71%
    11:00 0°C° 0 mm 1 mps 595 mmHg 69%
    12:00 +1°C° 0 mm 1 mps 595 mmHg 67%
    13:00 +2°C° 0 mm 1 mps 595 mmHg 66%
    14:00 +1°C° 0 mm 1 mps 595 mmHg 72%
    15:00 0°C° 0 mm 1 mps 594 mmHg 79%
    16:00 -2°C° 0 mm 1 mps 594 mmHg 85%
    17:00 -2°C° 0 mm 1 mps 594 mmHg 86%
    18:00 -3°C° 0 mm 1 mps 594 mmHg 88%
    19:00 -4°C° 0 mm 1 mps 594 mmHg 89%
    20:00 -4°C° 0 mm 1 mps 594 mmHg 88%
    21:00 -4°C° 0 mm 1 mps 595 mmHg 86%
    22:00 -7°C° 0 mm 2 mps 595 mmHg 85%
    23:00 -7°C° 0 mm 2 mps 595 mmHg 84%

    23 Noviembre, Viernes

    Tiempo Temperatura Precipitaciones Viento Presión Humedad
    00:00 -7°C° 0 mm 2 mps 595 mmHg 82%
    01:00 -7°C° 0 mm 2 mps 595 mmHg 81%
    02:00 -7°C° 0 mm 2 mps 595 mmHg 80%
    03:00 -7°C° 0 mm 2 mps 595 mmHg 78%
    04:00 -8°C° 0 mm 2 mps 595 mmHg 77%
    05:00 -8°C° 0 mm 2 mps 595 mmHg 76%
    06:00 -8°C° 0 mm 2 mps 595 mmHg 75%
    07:00 -8°C° 0 mm 2 mps 596 mmHg 74%
    08:00 -4°C° 0 mm 1 mps 596 mmHg 69%
    09:00 -3°C° 0 mm 1 mps 597 mmHg 65%
    10:00 -1°C° 0 mm 1 mps 598 mmHg 61%
    11:00 0°C° 0 mm 1 mps 598 mmHg 58%
    12:00 +1°C° 0 mm 1 mps 598 mmHg 55%
    13:00 +2°C° 0 mm 1 mps 598 mmHg 52%
    14:00 +1°C° 0 mm 1 mps 598 mmHg 59%
    15:00 0°C° 0 mm 1 mps 597 mmHg 65%
    16:00 -1°C° 0 mm 1 mps 597 mmHg 71%
    17:00 -4°C° 0 mm 2 mps 596 mmHg 71%
    18:00 -4°C° 0 mm 2 mps 596 mmHg 72%
    19:00 -5°C° 0 mm 2 mps 596 mmHg 72%
    20:00 -5°C° 0.1 mm 2 mps 596 mmHg 73%
    21:00 -5°C° 0.1 mm 2 mps 595 mmHg 74%
    22:00 -5°C° 0.1 mm 2 mps 595 mmHg 74%
    23:00 -5°C° 0.2 mm 2 mps 595 mmHg 76%
    Mostrar más